DW0148 Weather Reports


time (UTC)temp
F
wind
direction
speed
knots
gust
knots
rain 1hr
in
rain 24hr
in
rain mn
in
humidity
%
barometer
mb
20260831153556 86 205 0.0 0.0 0.00 0.00 0.00 72 1019.6
20260831153043 86 201 0.0 0.0 0.00 0.00 0.00 71 1019.6
20260831152521 86 259 0.0 0.0 0.00 0.00 0.00 75 1019.6
20260831151959 86 334 0.0 0.0 0.00 0.00 0.00 73 1019.6
20260831151442 86 221 0.0 0.0 0.00 0.00 0.00 75 1019.6
20260831150856 85 236 0.0 0.0 0.00 0.00 0.00 74 1019.6
20260831150343 85 276 0.0 0.0 0.00 0.00 0.00 77 1019.6
20260831145839 85 250 0.0 0.0 0.00 0.00 0.00 76 1019.6
20260831145317 85 285 0.0 0.0 0.00 0.00 0.00 74 1019.6
20260831144800 85 244 0.0 0.0 0.00 0.00 0.00 75 1019.6
20260831144216 84 149 0.0 0.0 0.00 0.00 0.00 74 1019.6
20260831143706 84 92 0.0 0.0 0.00 0.00 0.00 79 1019.6
20260831143201 84 276 0.0 0.0 0.00 0.00 0.00 78 1019.6
20260831142659 84 242 0.0 0.0 0.00 0.00 0.00 77 1019.6
20260831142114 84 162 0.0 0.0 0.00 0.00 0.00 78 1019.6
20260831141601 84 243 0.0 0.0 0.00 0.00 0.00 78 1019.6
20260831141057 84 197 0.0 0.0 0.00 0.00 0.00 80 1019.3
20260831140555 84 103 0.0 0.0 0.00 0.00 0.00 80 1019.3
20260831140020 83 172 0.0 0.0 0.00 0.00 0.00 81 1019.6
20260831135517 82 136 0.0 0.0 0.00 0.00 0.00 83 1019.6
20260831135013 81 181 0.0 0.0 0.00 0.00 0.00 84 1019.3
20260831134437 80 181 0.0 0.0 0.00 0.00 0.00 87 1019.3
20260831133933 79 181 0.0 0.0 0.00 0.00 0.00 89 1019.3
20260831133427 79 75 0.0 0.0 0.00 0.00 0.00 88 1019.6
20260831132920 77 91 0.0 0.0 0.00 0.00 0.00 94 1019.6
20260831132412 76 90 0.0 0.0 0.00 0.00 0.00 96 1019.6
20260831131901 75 89 0.0 0.0 0.00 0.00 0.00 95 1019.6
20260831131254 75 79 0.0 0.0 0.00 0.00 0.00 95 1019.6
20260831130752 74 41 0.0 0.0 0.00 0.00 0.00 95 1019.6
20260831130247 74 72 0.0 0.0 0.00 0.00 0.00 95 1019.6
20260831125745 73 73 0.0 0.0 0.00 0.00 0.00 95 1019.6
20260831125238 73 72 0.0 0.0 0.00 0.00 0.00 95 1019.3
20260831124735 72 72 0.0 0.0 0.00 0.00 0.00 95 1019.3
20260831124232 72 72 0.0 0.0 0.00 0.00 0.00 95 1019.3
20260831123728 71 72 0.0 0.0 0.00 0.00 0.00 95 1019.3
20260831123224 71 72 0.0 0.0 0.00 0.00 0.00 95 1019.3
20260831122716 71 72 0.0 0.0 0.00 0.00 0.00 95 1019.3
20260831122138 71 72 0.0 0.0 0.00 0.00 0.00 95 1019.3
20260831121556 71 72 0.0 0.0 0.00 0.00 0.00 95 1019.3
20260831121055 70 72 0.0 0.0 0.00 0.00 0.00 95 1019.3
20260831120549 70 73 0.0 0.0 0.00 0.00 0.00 95 1019.3
20260831120035 70 73 0.0 0.0 0.00 0.00 0.00 95 1019.0
20260831115529 70 72 0.0 0.0 0.00 0.00 0.00 95 1019.0
20260831115025 70 72 0.0 0.0 0.00 0.00 0.00 95 1019.0
20260831114520 70 72 0.0 0.0 0.00 0.00 0.00 95 1019.0
20260831114005 70 73 0.0 0.0 0.00 0.00 0.00 95 1019.0
20260831113414 70 72 0.0 0.0 0.00 0.00 0.00 95 1018.6
20260831112841 69 72 0.0 0.0 0.00 0.00 0.00 95 1018.6
20260831112339 69 72 0.0 0.0 0.00 0.00 0.00 95 1018.6
20260831111838 69 73 0.0 0.0 0.00 0.00 0.00 95 1018.6
20260831111335 69 72 0.0 0.0 0.00 0.00 0.00 95 1018.6
20260831110832 69 72 0.0 0.0 0.00 0.00 0.00 95 1018.6
20260831110330 69 72 0.0 0.0 0.00 0.00 0.00 95 1018.6
20260831105829 69 72 0.0 0.0 0.00 0.00 0.00 95 1018.6
20260831105324 69 73 0.0 0.0 0.00 0.00 0.00 95 1018.6
20260831104822 69 72 0.0 0.0 0.00 0.00 0.00 95 1018.3
20260831104315 69 72 0.0 0.0 0.00 0.00 0.00 95 1018.3
20260831103758 69 73 0.0 0.0 0.00 0.00 0.00 95 1018.6
20260831103256 69 72 0.0 0.0 0.00 0.00 0.00 95 1018.6
20260831102753 69 72 0.0 0.0 0.00 0.00 0.00 95 1018.6
20260831102248 69 72 0.0 0.0 0.00 0.00 0.00 95 1018.3
20260831101715 69 73 0.0 0.0 0.00 0.00 0.00 95 1018.3
20260831101210 69 73 0.0 0.0 0.00 0.00 0.00 95 1018.3
20260831100629 69 72 0.0 0.0 0.00 0.00 0.00 95 1018.3
20260831100055 69 72 0.0 0.0 0.00 0.00 0.00 95 1018.3
20260831095544 70 72 0.0 0.0 0.00 0.00 0.00 95 1017.9
20260831095042 70 72 0.0 0.0 0.00 0.00 0.00 95 1018.3
20260831094538 70 72 0.0 0.0 0.00 0.00 0.00 95 1017.9
20260831093929 70 72 0.0 0.0 0.00 0.00 0.00 95 1017.9
20260831093426 70 72 0.0 0.0 0.00 0.00 0.00 95 1018.3
20260831092922 70 72 0.0 0.0 0.00 0.00 0.00 95 1017.9
20260831092346 70 72 0.0 0.0 0.00 0.00 0.00 95 1017.9
20260831091838 70 72 0.0 0.0 0.00 0.00 0.00 95 1017.9
20260831091335 70 72 0.0 0.0 0.00 0.00 0.00 95 1017.9
20260831090833 70 72 0.0 0.0 0.00 0.00 0.00 95 1017.9
20260831090331 70 72 0.0 0.0 0.00 0.00 0.00 95 1017.9
20260831085828 70 73 0.0 0.0 0.00 0.00 0.00 95 1017.9
20260831085244 70 73 0.0 0.0 0.00 0.00 0.00 95 1017.9
20260831084740 70 72 0.0 0.0 0.00 0.00 0.00 95 1017.9
20260831084238 70 72 0.0 0.0 0.00 0.00 0.00 95 1017.9
20260831083735 70 73 0.0 0.0 0.00 0.00 0.00 95 1017.9
20260831083232 70 72 0.0 0.0 0.00 0.00 0.00 95 1017.9
20260831082730 70 72 0.0 0.0 0.00 0.00 0.00 95 1017.9
20260831082224 70 72 0.0 0.0 0.00 0.00 0.00 95 1017.6
20260831081717 70 72 0.0 0.0 0.00 0.00 0.00 95 1017.9
20260831081205 70 72 0.0 0.0 0.00 0.00 0.00 95 1017.6
20260831080657 70 72 0.0 0.0 0.00 0.00 0.00 95 1017.6
20260831080155 70 72 0.0 0.0 0.00 0.00 0.00 95 1017.6
20260831075645 70 72 0.0 0.0 0.00 0.00 0.00 95 1017.6
20260831075142 70 72 0.0 0.0 0.00 0.00 0.00 95 1017.6
20260831074600 70 72 0.0 0.0 0.00 0.00 0.00 95 1017.6
20260831074017 70 72 0.0 0.0 0.00 0.00 0.00 95 1017.6
20260831073453 70 72 0.0 0.0 0.00 0.00 0.00 95 1017.6
20260831072951 70 72 0.0 0.0 0.00 0.00 0.00 95 1017.6
20260831072448 70 72 0.0 0.0 0.00 0.00 0.00 95 1017.6
20260831071913 70 72 0.0 0.0 0.00 0.00 0.00 95 1017.6
20260831071408 70 72 0.0 0.0 0.00 0.00 0.00 95 1017.9
20260831070831 70 72 0.0 0.0 0.00 0.00 0.00 95 1017.9
20260831070329 70 72 0.0 0.0 0.00 0.00 0.00 95 1017.9
20260831065827 70 72 0.0 0.0 0.00 0.00 0.00 95 1017.9
20260831065321 70 72 0.0 0.0 0.00 0.00 0.00 95 1017.9
20260831064744 71 72 0.0 0.0 0.00 0.00 0.00 96 1017.9
20260831064241 71 72 0.0 0.0 0.00 0.00 0.00 95 1017.9
20260831063739 71 72 0.0 0.0 0.00 0.00 0.00 95 1017.9
20260831063201 71 72 0.0 0.0 0.00 0.00 0.00 95 1017.9
20260831062658 71 72 0.0 0.0 0.00 0.00 0.00 95 1017.9
20260831062156 71 72 0.0 0.0 0.00 0.00 0.00 95 1017.9
20260831061653 71 72 0.0 0.0 0.00 0.00 0.00 95 1017.9
20260831061151 71 72 0.0 0.0 0.00 0.00 0.00 95 1018.3
20260831060649 71 72 0.0 0.0 0.00 0.00 0.00 95 1018.3
20260831060148 71 72 0.0 0.0 0.00 0.00 0.00 95 1017.9
20260831055645 71 72 0.0 0.0 0.00 0.00 0.00 95 1017.9
20260831055037 71 72 0.0 0.0 0.00 0.00 0.00 95 1017.9
20260831054534 71 73 0.0 0.0 0.00 0.00 0.00 95 1017.9
20260831054032 72 72 0.0 0.0 0.00 0.00 0.00 95 1017.9
20260831053530 72 73 0.0 0.0 0.00 0.00 0.00 95 1017.9
20260831052956 72 72 0.0 0.0 0.00 0.00 0.00 95 1017.9
20260831052454 72 72 0.0 0.0 0.00 0.00 0.00 95 1017.9
20260831051952 72 72 0.0 0.0 0.00 0.00 0.00 95 1017.9
20260831051417 72 72 0.0 0.0 0.00 0.00 0.00 95 1017.9
20260831050916 72 72 0.0 0.0 0.00 0.00 0.00 95 1017.9
20260831050412 72 73 0.0 0.0 0.00 0.00 0.00 95 1017.9
20260831045910 72 74 0.0 0.0 0.00 0.00 0.00 95 1017.9
20260831045408 72 72 0.0 0.0 0.00 0.00 0.00 95 1017.9
20260831044835 72 72 0.0 0.0 0.00 0.00 0.00 95 1017.9
20260831044332 72 73 0.0 0.0 0.00 0.00 0.00 95 1017.9
20260831043830 72 72 0.0 0.0 0.00 0.00 0.00 95 1017.9
20260831043256 72 73 0.0 0.0 0.00 0.00 0.00 95 1017.9
20260831042748 72 146 0.0 0.0 0.00 0.00 0.00 95 1017.6
20260831042247 72 146 0.0 0.0 0.00 0.00 0.00 95 1017.6
20260831041744 72 146 0.0 0.0 0.00 0.00 0.00 95 1017.6
20260831041241 72 147 0.0 0.0 0.00 0.00 0.00 95 1017.6
20260831040740 72 146 0.0 0.0 0.00 0.00 0.00 95 1017.9
20260831040236 72 146 0.0 0.0 0.00 0.00 0.00 95 1017.9
20260831035735 72 147 0.0 0.0 0.00 0.00 0.00 95 1017.9
20260831035233 72 146 0.0 0.0 0.00 0.00 0.00 95 1017.9
20260831034732 72 147 0.0 0.0 0.00 0.00 0.00 95 1017.9
20260831034156 72 146 0.0 0.0 0.00 0.00 0.00 95 1017.9
20260831033652 72 146 0.0 0.0 0.00 0.00 0.00 95 1017.9
20260831033149 73 147 0.0 0.0 0.00 0.00 0.00 95 1017.9
20260831032644 73 146 0.0 0.0 0.00 0.00 0.00 95 1017.9
20260831032143 73 147 0.0 0.0 0.00 0.00 0.00 95 1017.9
20260831031637 73 146 0.0 0.0 0.00 0.00 0.00 95 1017.9
20260831031135 73 146 0.0 0.0 0.00 0.00 0.00 95 1017.9
20260831030631 73 146 0.0 0.0 0.00 0.00 0.00 95 1017.9